Other Public Products
Issued by NWS Grand Forks, ND

Home | Current Version | Previous Version | Text Only | Print | Product List | Glossary Off
Versions: 1 2 3 4 5 6 7 8 9 10 11 12 13 14 15 16 17 18 19 20 21 22 23 24 25 26 27 28 29 30 31 32 33 34 35 36 37 38 39 40 41 42 43 44 45 46 47 48 49 50

000
FPUS83 KFGF 300710
OPUFGF
PRAIRIE TO PINES WEATHER ROUNDUP
NATIONAL WEATHER SERVICE EASTERN NORTH DAKOTA/GRAND FORKS ND
200 AM CDT SAT MAY 30 2015

 **SATELLITE DATA USED TO AUGMENT SKY COVER AT AUTOMATED STATIONS**
 *****  WEATHER ACROSS EASTERN NORTH DAKOTA  *****

CITY           SKY/WX    TMP DP  RH WIND       PRES   REMARKS
GRAND FORKS    CLEAR     36  28  73 N10       30.34S
GRAND FORKS AF CLEAR     35  27  72 N13       30.35
GRAND CITY NWS   N/A     36 N/A N/A NE13        N/A
BUXTON         NOT AVBL
DEVILS LAKE    CLEAR     37  25  60 NE10      30.34S
FARGO          CLEAR     41  30  65 N20G28    30.30R
WAHPETON ARPT  MOSUNNY   41  32  70 N14       30.27R
$$

 *****  WEATHER ACROSS CENTRAL AND WESTERN NORTH DAKOTA  *****

CITY           SKY/WX    TMP DP  RH WIND       PRES   REMARKS
JAMESTOWN      CLEAR     40  31  70 NE15      30.31R
BISMARCK       CLEAR     41  34  76 NE8       30.32R
MINOT          CLEAR     39  31  72 E12       30.34R
MINOT AFB      CLEAR     40  39  97 E9        30.34R
GARRISON         N/A     43  34  70 E13       30.31R
WILLISTON      PTCLDY    46  33  60 CALM      30.30R
DICKINSON      CLEAR     37  30  75 SE8       30.27F
HETTINGER      CLEAR     37  33  85 CALM      30.30S
$$

 *****  OTHER OBSERVATIONS NORTHEAST NORTH DAKOTA  *****

CITY           SKY/WX    TMP DP  RH WIND       PRES   REMARKS
WALHALLA       FAIR      34  25  69 MISG      30.39R
LANGDON        FAIR      34  25  69 NE12      30.36R
CAVALIER       FAIR      36  25  64 N8        30.38R
GRAFTON        FAIR      36  27  69 N10       30.37S
CANDO          FAIR      34  27  75 NE7       30.37R
FORT TOTTEN      N/A     38  26  61 NE7       29.95
ROLLA          FAIR      32  30  93 N9        30.37R WCI  24
RUGBY          NOT AVBL
 ***** THE ABOVE OBSERVATIONS ARE NON NWS ARE NOT QUALITY
        CONTROLLED AND MAY MIS-REPORT RAIN FOR SNOW...
$$

 *****  OTHER OBSERVATIONS SOUTHEAST NORTH DAKOTA *****

CITY           SKY/WX    TMP DP  RH WIND       PRES   REMARKS
COOPERSTOWN    NOT AVBL
VALLEY CITY    FAIR      39  28  65 NE15G23   30.31R
OAKES            N/A     41  37  87 N12       30.29S
GWINNER        NOT AVBL
SHEYENNE NWR     N/A     42  32  68 N12       29.95S
BUFFALO        NOT AVBL
WYNDMERE         N/A     43  36  75 N10         N/A
 ***** THE ABOVE OBSERVATIONS ARE NON NWS ARE NOT QUALITY
       CONTROLLED AND MAY MIS-REPORT RAIN FOR SNOW...
$$

  *****  WEATHER ACROSS NORTHERN MINNESOTA  *****

CITY           SKY/WX    TMP DP  RH WIND       PRES   REMARKS
FLAG ISLAND    CLOUDY    37  28  70 N18G26    30.30R
WARROAD        CLEAR     36  30  80 NW7       30.31R
ROSEAU         CLEAR     36  28  75 N12       30.31S
HALLOCK        CLEAR     36  25  64 N12       30.35S
THF RVR FALLS  CLEAR     36  28  75 N14       30.31S
HALSTAD        NOT AVBL
FOSSTON        CLEAR     34  30  86 N18       30.28S WCI  23
BAUDETTE       CLOUDY    41  31  67 N13G20    30.25S
WASKISH        MOCLDY    41  36  81 NW10G18   30.25R
CROOKSTON      CLEAR     37  28  70 N14       30.33S
$$
  *****  WEATHER ACROSS CENTRAL AND WEST MINNESOTA  *****

CITY           SKY/WX    TMP DP  RH WIND       PRES   REMARKS
BEMIDJI        CLEAR     40  34  81 N9        30.23S
PARK RAPIDS    MOCLDY    44  32  62 N14G23    30.21R
WADENA         MOCLDY    43  36  75 N8        30.20R
DETROIT LAKES  PTCLDY    39  32  75 N7        30.26R
MOORHEAD       CLEAR     39  28  65 N18G25    30.30R
FERGUS FALLS   MOCLDY    43  34  70 N15       30.25R
ELBOW LAKE     FAIR      44  37  74 N14G20    30.21S
MORRIS MN      MOCLDY    46  39  76 N14       30.20R
STAPLES        PTCLDY    45  37  76 N7        30.19S
WHEATON        MOCLDY    41  36  81 N15       30.26R
$$
  *****  WEATHER ELSEWHERE ACROSS MINNESOTA  *****

CITY           SKY/WX    TMP DP  RH WIND       PRES   REMARKS
DULUTH         MOCLDY    46  37  71 N6        30.12R
INTRNTL FALLS  MOCLDY    42  33  70 N8        30.22R
ELY            NOT AVBL
CLOQUET        MOCLDY    45  37  76 NW7       30.14R
BRAINERD       PTCLDY    46  39  76 N9        30.18R
HIBBING        CLEAR     42  35  76 N9        30.16R
ALEXANDRIA     PTCLDY    46  37  71 N14G22    30.19S
SAINT CLOUD    PTCLDY    48  41  76 N8        30.14R
MINNEAPOLIS    MOCLDY    53  45  74 N23G29    30.07S
$$

  *****  WEATHER ACROSS SOUTH DAKOTA  *****

CITY           SKY/WX    TMP DP  RH WIND       PRES   REMARKS
SIOUX FALLS    PTCLDY    48  41  76 N10       30.17R
BROOKINGS      PTCLDY    45  37  76 N16       30.20S
WATERTOWN      PTCLDY    43  35  73 N17G25    30.21R
HURON          PTCLDY    42  39  89 N9        30.25R
SISSETON         N/A     43  37  79 N18       30.25R
ABERDEEN       MOCLDY    45  36  70 NE10      30.28R
MITCHELL       PTCLDY    46  41  82 N10       30.24R
PIERRE         CLEAR     40  37  89 N8        30.27S
MOBRIDGE       CLEAR     41  36  82 N8        30.27R
RAPID CITY     CLEAR     38  35  89 E5        30.30S
$$

  *****  SOME WEATHER IN NEARBY STATES *****

CITY           SKY/WX    TMP DP  RH WIND       PRES   REMARKS
GLASGOW MT     PTCLDY    46  34  62 E13       30.22S
GREAT FALLS MT PTCLDY    50  45  83 S3        30.04S
CHEYENNE WY    CLEAR     42  40  92 SW7       30.32F
SCOTTSBLUFF NE CLOUDY    48  45  89 NE7       30.30S
OMAHA NE       CLOUDY    53  49  86 N16       30.08R
DES MOINES IA  CLOUDY    60  57  89 N12       29.97F
DAVENPORT IA   LGT RAIN  68  63  84 SW9       29.95S
CHICAGO IL     MOCLDY    70  64  81 SW3       29.93S
EAU CLAIRE WI  CLOUDY    55  52  89 N13       30.01R
LA CROSSE WI   RAIN      62  60  93 N15       29.93R FOG
$$

  *****  SOME NATIONAL WEATHER *****

CITY           SKY/WX    TMP DP  RH WIND       PRES   REMARKS
LA GUARDIA NY  MOCLDY    66  60  81 S7        30.19F
RALEIGH NC     PTCLDY    70  65  84 CALM      30.19F
ATLANTA GA     PTCLDY    69  60  73 E3        30.14F
NEW ORLEANS LA PTCLDY    76  70  82 SE3       30.04F
OKLAHOMA CITY  PTCLDY    66  63  90 CALM      30.01F
ALBUQUERQUE NM MOCLDY    63  45  51 E24G40    30.20S
SALT LAKE CITY MOCLDY    61  41  47 S7        30.12S
LOS ANGELES CA FOG       57  57 100 W6        29.95R VSB 1/4
BOISE ID       MOCLDY    72  41  32 SE10      29.94F
SEATTLE WA     MOCLDY    57  50  77 SW8       29.94S
$$

*** WEATHER ACROSS MANITOBA...SASKATCHEWAN AND ONTARIO ***
                ***ONTARIO***

CITY           SKY/WX    TMP DP  RH WIND       PRES   REMARKS
GERALDTON      MOCLDY    41  37  87 N8        30.03R
THUNDER BAY    CLOUDY    50  43  76 NW12G17   30.07R
SIOUX LOOKOUT  FLURRIES  32  25  74 N8        30.24R WCI  25
TORONTO        MOCLDY    63  54  72 S6        29.97F
BIG TROUT LK   LGT SNOW  28  28 100 N7        30.18  WCI  21
PICKLE LAKE    NOT AVBL
DRYDEN         CLOUDY    34  27  75 N13G25    30.26R WCI  25
KENORA         MOCLDY    34  25  69 N8G20     30.30R
$$
                *** MANITOBA***

CITY           SKY/WX    TMP DP  RH WIND       PRES   REMARKS
BRANDON        CLEAR     32  23  69 NE7       30.40S
DAUPHIN        PTCLDY    30  27  86 W5        30.42S
ISLAND LAKE    PTCLDY    28  25  86 N8        30.38R WCI  20
PILOT MOUND      N/A     32  27  80 NE6         N/A
THE PAS        CLEAR     27  23  86 SE2       30.42F
THOMPSON       MOCLDY    32  25  74 CALM      30.39F
WINNIPEG       CLEAR     32  23  69 N14       30.39S WCI  22
LYNN LAKE      CLEAR     28  23  80 SW6       30.35F WCI  22
CHURCHILL      CLOUDY    28  23  80 SW6       30.33F WCI  22
GILLAM         CLOUDY    27  23  86 SW3       30.38S
$$
                ***SASKATCHEWAN***

CITY           SKY/WX    TMP DP  RH WIND       PRES   REMARKS
ESTEVAN        PTCLDY    39  32  75 E14       30.34R
KINDERSLEY     CLOUDY    46  25  42 SE18G24   30.24S
LLOYDMINSTER   CLOUDY    48  25  40 SE14G20   30.24F
PRINCE ALBERT  MOCLDY    39  25  56 SE7       30.35F
REGINA         PTCLDY    41  23  48 E9        30.34S



USA.gov is the U.S. government's official web portal to all federal, state and local government web resources and services.